Starlink 4442

operational
NORAD ID: 53480 Int'l Des: 2022-099 Owner: SPXS Country: US Constellation: starlink
LEOCIRCULARRETROGRADESSO

Über Starlink 4442

Beschreibung wird geladen...

Live-Position

3D-Globus wird geladen...

Nächste Überflüge

Höhenverlauf

Altitude vs Time

uPlot chart will show altitude changes over time

Zweizeiliger Elementsatz

1 53480U 22099R 25352.93086350 .00000291 00000-0 24364-4 0 9998
2 53480 97.6035 111.5974 0001137 94.6055 265.5302 15.05648069183897
Epoch: 18. Dez. 2025 • Age: 7 hours

Aktueller Status

Höhe 562.3 km
Geschwindigkeit 7.59 km/s
Subsatellitenpunkt 82.37°N, 135.39°W
Startdatum 12. Aug. 2022
Alter 3.3 years
Typ internet

Technische Details

Klassifizierung Payload
Masse 300.00 kg
Trockenmasse 275.00 kg
Gesamtmasse 300.00 kg
Länge 0.20 m
Durchmesser 2.80 m
Spannweite 9.00 m
Form Box + pan
Hersteller SPXS
Bus-Typ Starlink
Phasenstatus In Orbit
Besitzer/Staat SPXS/US

Große Konstellationen

Loading constellations...